Time,TemperatureF,DewpointF,PressureIn,WindDirection,WindDirectionDegrees,WindSpeedMPH,WindSpeedGustMPH,Humidity,HourlyPrecipIn,Conditions,Clouds,dailyrainin,SoftwareType,DateUTC
2013-01-28 00:04:00,32.0,28.0,-100.00,SSW,213,14.0,21.0,85,0.00,,,-99.99,,2013-01-28 05:04:00,
2013-01-28 00:12:00,31.0,28.0,-100.00,SW,221,14.0,21.0,85,0.00,,,-99.99,,2013-01-28 05:12:00,
2013-01-28 00:22:00,31.0,28.0,-100.00,SW,217,12.0,21.0,86,0.00,,,-99.99,,2013-01-28 05:22:00,
2013-01-28 00:32:00,32.0,30.0,-100.00,SW,217,10.0,21.0,88,0.00,,,-99.99,,2013-01-28 05:32:00,
2013-01-28 00:42:00,32.0,30.0,-100.00,SW,216,9.0,21.0,89,0.00,,,-99.99,,2013-01-28 05:42:00,
2013-01-28 00:52:00,32.0,30.0,-100.00,SW,216,12.0,21.0,90,0.00,,,-99.99,,2013-01-28 05:52:00,
2013-01-28 01:02:00,32.0,30.0,-100.00,SW,227,12.0,21.0,90,0.00,,,-99.99,,2013-01-28 06:02:00,
2013-01-28 01:11:00,32.0,30.0,-100.00,SSW,199,11.0,21.0,91,0.00,,,-99.99,,2013-01-28 06:11:00,
2013-01-28 01:22:00,32.0,30.0,-100.00,SSW,210,11.0,21.0,91,0.00,,,-99.99,,2013-01-28 06:22:00,
2013-01-28 01:32:00,32.0,30.0,-100.00,SSW,201,9.0,21.0,91,0.00,,,-99.99,,2013-01-28 06:32:00,
2013-01-28 01:42:00,33.0,32.0,-100.00,SSW,201,11.0,21.0,93,0.00,,,-99.99,,2013-01-28 06:42:00,
2013-01-28 01:52:00,33.0,32.0,-100.00,SSW,208,12.0,21.0,93,0.00,,,-99.99,,2013-01-28 06:52:00,
2013-01-28 02:03:00,33.0,32.0,-100.00,SSW,213,14.0,21.0,93,0.00,,,-99.99,,2013-01-28 07:03:00,
2013-01-28 02:11:00,33.0,32.0,-100.00,SW,223,14.0,21.0,93,0.00,,,-99.99,,2013-01-28 07:11:00,
2013-01-28 02:22:00,33.0,32.0,-100.00,SW,214,14.0,21.0,93,0.00,,,-99.99,,2013-01-28 07:22:00,
2013-01-28 02:32:00,33.0,32.0,-100.00,SW,216,12.0,21.0,93,1.14,,,-99.99,,2013-01-28 07:32:00,
2013-01-28 02:42:00,33.0,32.0,-100.00,SW,217,12.0,21.0,93,0.00,,,-99.99,,2013-01-28 07:42:00,
2013-01-28 02:51:00,33.0,32.0,-100.00,SSW,210,11.0,21.0,93,0.00,,,-99.99,,2013-01-28 07:51:00,
2013-01-28 03:01:00,33.0,32.0,-100.00,SSW,210,11.0,21.0,94,0.00,,,-99.99,,2013-01-28 08:01:00,
2013-01-28 03:11:00,33.0,32.0,-100.00,WSW,237,12.0,21.0,94,0.00,,,-99.99,,2013-01-28 08:11:00,
2013-01-28 03:21:00,33.0,32.0,-100.00,SW,221,12.0,21.0,94,0.00,,,-99.99,,2013-01-28 08:21:00,
2013-01-28 03:32:00,33.0,32.0,-100.00,SSW,207,12.0,21.0,94,0.00,,,-99.99,,2013-01-28 08:32:00,
2013-01-28 03:42:00,33.0,32.0,-100.00,SW,225,11.0,21.0,94,0.00,,,-99.99,,2013-01-28 08:42:00,
2013-01-28 03:52:00,34.0,32.0,-100.00,SSW,210,12.0,21.0,94,0.00,,,-99.99,,2013-01-28 08:52:00,
2013-01-28 04:02:00,34.0,32.0,-100.00,SW,225,12.0,21.0,94,0.00,,,-99.99,,2013-01-28 09:02:00,
2013-01-28 04:12:00,34.0,32.0,-100.00,SW,231,13.0,21.0,94,0.00,,,-99.99,,2013-01-28 09:12:00,
2013-01-28 04:22:00,34.0,32.0,-100.00,SSW,203,14.0,21.0,94,0.00,,,-99.99,,2013-01-28 09:22:00,
2013-01-28 04:32:00,34.0,32.0,-100.00,SW,220,15.0,21.0,94,0.00,,,-99.99,,2013-01-28 09:32:00,
2013-01-28 04:42:00,34.0,32.0,-100.00,SSW,213,16.0,21.0,94,0.00,,,-99.99,,2013-01-28 09:42:00,
2013-01-28 04:52:00,34.0,32.0,-100.00,SW,216,15.0,21.0,94,0.00,,,-99.99,,2013-01-28 09:52:00,
2013-01-28 05:02:00,34.0,32.0,-100.00,SW,224,15.0,21.0,94,0.00,,,-99.99,,2013-01-28 10:02:00,
2013-01-28 05:11:00,35.0,32.0,-100.00,WSW,244,13.0,21.0,95,0.00,,,-99.99,,2013-01-28 10:11:00,
2013-01-28 05:21:00,35.0,34.0,-100.00,WSW,248,14.0,21.0,95,0.00,,,-99.99,,2013-01-28 10:21:00,
2013-01-28 05:32:00,38.0,36.0,-100.00,WSW,256,13.0,21.0,94,0.00,,,-99.99,,2013-01-28 10:32:00,
2013-01-28 05:42:00,38.0,36.0,-100.00,WSW,242,11.0,21.0,95,0.00,,,-99.99,,2013-01-28 10:42:00,
2013-01-28 05:52:00,38.0,36.0,-100.00,WSW,248,12.0,21.0,97,0.00,,,-99.99,,2013-01-28 10:52:00,
2013-01-28 06:02:00,39.0,36.0,-100.00,West,262,13.0,21.0,95,0.00,,,-99.99,,2013-01-28 11:02:00,
2013-01-28 06:11:00,39.0,37.0,-100.00,WSW,245,14.0,21.0,97,0.00,,,-99.99,,2013-01-28 11:11:00,
2013-01-28 06:22:00,39.0,37.0,-100.00,WSW,248,12.0,21.0,95,0.00,,,-99.99,,2013-01-28 11:22:00,
2013-01-28 06:32:00,39.0,37.0,-100.00,WSW,244,14.0,21.0,95,0.00,,,-99.99,,2013-01-28 11:32:00,
2013-01-28 06:42:00,39.0,36.0,-100.00,West,271,13.0,21.0,95,0.00,,,-99.99,,2013-01-28 11:42:00,
2013-01-28 06:52:00,38.0,36.0,-100.00,WSW,244,14.0,21.0,95,0.00,,,-99.99,,2013-01-28 11:52:00,
2013-01-28 07:03:00,39.0,37.0,-100.00,WNW,282,13.0,21.0,95,0.00,,,-99.99,,2013-01-28 12:03:00,
2013-01-28 07:12:00,39.0,37.0,-100.00,WSW,238,12.0,21.0,95,0.00,,,-99.99,,2013-01-28 12:12:00,
2013-01-28 07:23:00,40.0,37.0,-100.00,WSW,241,12.0,21.0,95,0.00,,,-99.99,,2013-01-28 12:23:00,
2013-01-28 07:33:00,40.0,37.0,-100.00,WSW,240,14.0,21.0,95,0.00,,,-99.99,,2013-01-28 12:33:00,
2013-01-28 07:42:00,40.0,37.0,-100.00,WSW,258,14.0,21.0,94,0.00,,,-99.99,,2013-01-28 12:42:00,
2013-01-28 07:52:00,40.0,37.0,-100.00,WSW,240,14.0,21.0,95,0.00,,,-99.99,,2013-01-28 12:52:00,
2013-01-28 08:03:00,40.0,37.0,-100.00,WSW,255,14.0,21.0,94,0.00,,,-99.99,,2013-01-28 13:03:00,
2013-01-28 08:12:00,40.0,37.0,-100.00,WSW,237,13.0,21.0,94,0.00,,,-99.99,,2013-01-28 13:12:00,
2013-01-28 08:23:00,41.0,37.0,-100.00,WSW,247,15.0,21.0,94,0.00,,,-99.99,,2013-01-28 13:23:00,
2013-01-28 08:33:00,41.0,37.0,-100.00,WSW,254,13.0,21.0,94,0.00,,,-99.99,,2013-01-28 13:33:00,
2013-01-28 08:42:00,40.0,37.0,-100.00,WSW,251,11.0,21.0,94,0.00,,,-99.99,,2013-01-28 13:42:00,
2013-01-28 08:52:00,41.0,39.0,-100.00,WSW,258,13.0,21.0,94,0.00,,,-99.99,,2013-01-28 13:52:00,
2013-01-28 09:03:00,41.0,39.0,-100.00,West,266,13.0,21.0,94,0.00,,,-99.99,,2013-01-28 14:03:00,
2013-01-28 09:12:00,41.0,39.0,-100.00,West,264,14.0,21.0,94,0.00,,,-99.99,,2013-01-28 14:12:00,
2013-01-28 09:23:00,41.0,39.0,-100.00,West,266,16.0,21.0,94,0.00,,,-99.99,,2013-01-28 14:23:00,
2013-01-28 09:33:00,42.0,39.0,-100.00,WSW,244,14.0,21.0,94,0.00,,,-99.99,,2013-01-28 14:33:00,
2013-01-28 09:43:00,42.0,39.0,-100.00,WSW,242,15.0,21.0,94,0.00,,,-99.99,,2013-01-28 14:43:00,
2013-01-28 09:52:00,42.0,39.0,-100.00,West,264,17.0,21.0,93,0.00,,,-99.99,,2013-01-28 14:52:00,
2013-01-28 10:03:00,42.0,39.0,-100.00,West,259,17.0,21.0,93,0.00,,,-99.99,,2013-01-28 15:03:00,
2013-01-28 10:13:00,42.0,39.0,-100.00,West,268,16.0,21.0,93,0.00,,,-99.99,,2013-01-28 15:13:00,
2013-01-28 10:23:00,42.0,39.0,-100.00,West,278,15.0,21.0,93,0.00,,,-99.99,,2013-01-28 15:23:00,
2013-01-28 10:33:00,43.0,39.0,-100.00,West,271,14.0,21.0,93,0.00,,,-99.99,,2013-01-28 15:33:00,
2013-01-28 10:43:00,43.0,39.0,-100.00,WSW,256,11.0,21.0,91,0.00,,,-99.99,,2013-01-28 15:43:00,
2013-01-28 10:53:00,43.0,39.0,-100.00,West,271,11.0,21.0,91,0.00,,,-99.99,,2013-01-28 15:53:00,
2013-01-28 11:04:00,43.0,41.0,-100.00,West,275,11.0,21.0,93,0.00,,,-99.99,,2013-01-28 16:04:00,
2013-01-28 11:13:00,43.0,39.0,-100.00,West,264,11.0,21.0,91,0.00,,,-99.99,,2013-01-28 16:13:00,
2013-01-28 11:22:00,44.0,41.0,-100.00,West,269,12.0,21.0,91,0.00,,,-99.99,,2013-01-28 16:22:00,
2013-01-28 11:33:00,45.0,41.0,-100.00,West,268,12.0,21.0,91,0.00,,,-99.99,,2013-01-28 16:33:00,
2013-01-28 11:43:00,45.0,41.0,-100.00,WSW,258,11.0,21.0,91,0.00,,,-99.99,,2013-01-28 16:43:00,
2013-01-28 11:52:00,43.0,39.0,-100.00,WNW,286,14.0,21.0,90,0.00,,,-99.99,,2013-01-28 16:52:00,
2013-01-28 12:02:00,44.0,39.0,-100.00,WNW,293,14.0,21.0,89,0.00,,,-99.99,,2013-01-28 17:02:00,
2013-01-28 12:12:00,45.0,41.0,-100.00,West,273,14.0,21.0,89,0.00,,,-99.99,,2013-01-28 17:12:00,
2013-01-28 12:23:00,45.0,41.0,-100.00,West,278,13.0,21.0,89,0.00,,,-99.99,,2013-01-28 17:23:00,
2013-01-28 12:33:00,45.0,41.0,-100.00,WNW,292,16.0,21.0,88,0.00,,,-99.99,,2013-01-28 17:33:00,
2013-01-28 12:42:00,45.0,41.0,-100.00,NW,304,17.0,21.0,88,0.00,,,-99.99,,2013-01-28 17:42:00,
2013-01-28 12:52:00,45.0,41.0,-100.00,West,264,14.0,21.0,88,0.00,,,-99.99,,2013-01-28 17:52:00,
2013-01-28 13:03:00,45.0,41.0,-100.00,WNW,282,16.0,21.0,88,0.00,,,-99.99,,2013-01-28 18:03:00,
2013-01-28 13:12:00,46.0,41.0,-100.00,WNW,292,15.0,21.0,88,0.00,,,-99.99,,2013-01-28 18:12:00,
2013-01-28 13:23:00,46.0,43.0,-100.00,WNW,300,15.0,21.0,88,0.00,,,-99.99,,2013-01-28 18:23:00,
2013-01-28 13:33:00,47.0,43.0,-100.00,WNW,299,14.0,21.0,88,0.00,,,-99.99,,2013-01-28 18:33:00,
2013-01-28 13:42:00,47.0,43.0,-100.00,West,280,13.0,21.0,88,0.00,,,-99.99,,2013-01-28 18:42:00,
2013-01-28 13:52:00,47.0,43.0,-100.00,WNW,283,14.0,21.0,88,0.00,,,-99.99,,2013-01-28 18:52:00,
2013-01-28 14:02:00,47.0,43.0,-100.00,NW,312,14.0,21.0,88,0.00,,,-99.99,,2013-01-28 19:02:00,
2013-01-28 14:12:00,47.0,43.0,-100.00,WNW,296,14.0,21.0,88,0.00,,,-99.99,,2013-01-28 19:12:00,
2013-01-28 14:22:00,48.0,43.0,-100.00,West,276,14.0,21.0,88,0.00,,,-99.99,,2013-01-28 19:22:00,
2013-01-28 14:33:00,48.0,43.0,-100.00,WNW,283,13.0,21.0,88,0.00,,,-99.99,,2013-01-28 19:33:00,
2013-01-28 14:42:00,48.0,45.0,-100.00,West,276,16.0,21.0,88,0.00,,,-99.99,,2013-01-28 19:42:00,
2013-01-28 14:52:00,48.0,43.0,-100.00,WNW,288,14.0,21.0,88,0.00,,,-99.99,,2013-01-28 19:52:00,
2013-01-28 15:03:00,48.0,45.0,-100.00,West,279,14.0,21.0,88,0.00,,,-99.99,,2013-01-28 20:03:00,
2013-01-28 15:12:00,48.0,45.0,-100.00,WNW,293,11.0,21.0,88,0.00,,,-99.99,,2013-01-28 20:12:00,
2013-01-28 15:22:00,48.0,45.0,-100.00,WNW,295,12.0,21.0,89,0.00,,,-99.99,,2013-01-28 20:22:00,
2013-01-28 15:33:00,49.0,45.0,-100.00,WNW,292,14.0,21.0,88,0.00,,,-99.99,,2013-01-28 20:33:00,
2013-01-28 15:42:00,49.0,45.0,-100.00,WNW,290,13.0,21.0,89,0.00,,,-99.99,,2013-01-28 20:42:00,
2013-01-28 15:52:00,48.0,45.0,-100.00,NW,306,13.0,21.0,89,0.00,,,-99.99,,2013-01-28 20:52:00,
2013-01-28 16:03:00,48.0,45.0,-100.00,West,271,11.0,21.0,88,0.00,,,-99.99,,2013-01-28 21:03:00,
2013-01-28 16:12:00,48.0,45.0,-100.00,WNW,292,11.0,21.0,89,0.00,,,-99.99,,2013-01-28 21:12:00,
2013-01-28 16:23:00,49.0,45.0,-100.00,NW,310,12.0,21.0,89,0.00,,,-99.99,,2013-01-28 21:23:00,
2013-01-28 16:33:00,49.0,45.0,-100.00,WNW,300,11.0,21.0,89,0.00,,,-99.99,,2013-01-28 21:33:00,
2013-01-28 16:43:00,49.0,45.0,-100.00,WNW,285,14.0,21.0,89,0.00,,,-99.99,,2013-01-28 21:43:00,
2013-01-28 16:52:00,49.0,45.0,-100.00,WNW,293,13.0,21.0,89,0.00,,,-99.99,,2013-01-28 21:52:00,
2013-01-28 17:02:00,48.0,45.0,-100.00,West,276,12.0,21.0,89,0.00,,,-99.99,,2013-01-28 22:02:00,
2013-01-28 17:12:00,49.0,45.0,-100.00,WNW,290,11.0,21.0,90,0.00,,,-99.99,,2013-01-28 22:12:00,
2013-01-28 17:23:00,49.0,45.0,-100.00,WNW,283,12.0,21.0,90,0.00,,,-99.99,,2013-01-28 22:23:00,
2013-01-28 17:33:00,49.0,45.0,-100.00,West,272,11.0,21.0,90,0.00,,,-99.99,,2013-01-28 22:33:00,
2013-01-28 17:42:00,48.0,45.0,-100.00,WNW,286,13.0,21.0,90,0.00,,,-99.99,,2013-01-28 22:42:00,
2013-01-28 17:52:00,48.0,45.0,-100.00,WNW,285,12.0,21.0,90,0.00,,,-99.99,,2013-01-28 22:52:00,
2013-01-28 18:02:00,48.0,45.0,-100.00,WNW,290,13.0,21.0,91,0.00,,,-99.99,,2013-01-28 23:02:00,
2013-01-28 18:12:00,48.0,45.0,-100.00,West,272,11.0,21.0,91,0.00,,,-99.99,,2013-01-28 23:12:00,
2013-01-28 18:22:00,48.0,45.0,-100.00,WNW,292,11.0,21.0,91,0.00,,,-99.99,,2013-01-28 23:22:00,
2013-01-28 18:32:00,48.0,45.0,-100.00,WNW,297,13.0,21.0,91,0.00,,,-99.99,,2013-01-28 23:32:00,
2013-01-28 18:42:00,48.0,45.0,-100.00,WNW,286,11.0,21.0,93,0.00,,,-99.99,,2013-01-28 23:42:00,
2013-01-28 18:52:00,48.0,45.0,-100.00,WNW,303,9.0,21.0,93,0.00,,,-99.99,,2013-01-28 23:52:00,
2013-01-28 19:02:00,48.0,45.0,-100.00,West,279,9.0,21.0,93,0.00,,,-99.99,,2013-01-29 00:02:00,
2013-01-28 19:12:00,48.0,45.0,-100.00,WNW,289,10.0,21.0,93,0.00,,,-99.99,,2013-01-29 00:12:00,
2013-01-28 19:22:00,48.0,45.0,-100.00,West,280,9.0,21.0,93,0.00,,,-99.99,,2013-01-29 00:22:00,
2013-01-28 19:33:00,48.0,45.0,-100.00,WNW,297,9.0,21.0,94,0.00,,,-99.99,,2013-01-29 00:33:00,
2013-01-28 19:42:00,48.0,45.0,-100.00,WNW,297,8.0,21.0,93,0.00,,,-99.99,,2013-01-29 00:42:00,
2013-01-28 19:52:00,48.0,45.0,-100.00,West,269,9.0,21.0,94,0.00,,,-99.99,,2013-01-29 00:52:00,
2013-01-28 20:02:00,48.0,45.0,-100.00,West,280,9.0,21.0,94,0.00,,,-99.99,,2013-01-29 01:02:00,
2013-01-28 20:12:00,48.0,45.0,-100.00,WNW,297,9.0,21.0,94,0.00,,,-99.99,,2013-01-29 01:12:00,
2013-01-28 20:23:00,48.0,45.0,-100.00,WNW,289,10.0,21.0,94,0.00,,,-99.99,,2013-01-29 01:23:00,
2013-01-28 20:32:00,48.0,45.0,-100.00,WNW,293,10.0,21.0,94,0.00,,,-99.99,,2013-01-29 01:32:00,
2013-01-28 20:42:00,48.0,45.0,-100.00,West,279,9.0,21.0,94,0.00,,,-99.99,,2013-01-29 01:42:00,
2013-01-28 20:52:00,48.0,45.0,-100.00,West,278,11.0,21.0,94,0.00,,,-99.99,,2013-01-29 01:52:00,
2013-01-28 21:02:00,48.0,45.0,-100.00,WNW,299,9.0,21.0,94,0.00,,,-99.99,,2013-01-29 02:02:00,
2013-01-28 21:12:00,48.0,45.0,-100.00,NW,306,8.0,21.0,94,0.00,,,-99.99,,2013-01-29 02:12:00,
2013-01-28 21:22:00,48.0,45.0,-100.00,West,275,9.0,21.0,94,0.00,,,-99.99,,2013-01-29 02:22:00,
2013-01-28 21:33:00,48.0,45.0,-100.00,WNW,285,9.0,21.0,94,0.00,,,-99.99,,2013-01-29 02:33:00,
2013-01-28 21:42:00,48.0,45.0,-100.00,West,271,9.0,21.0,94,0.00,,,-99.99,,2013-01-29 02:42:00,
2013-01-28 21:52:00,48.0,45.0,-100.00,WNW,296,9.0,21.0,94,0.00,,,-99.99,,2013-01-29 02:52:00,
2013-01-28 22:03:00,48.0,45.0,-100.00,WNW,283,9.0,21.0,94,0.00,,,-99.99,,2013-01-29 03:03:00,
2013-01-28 22:12:00,48.0,45.0,-100.00,WNW,295,7.0,7.0,94,0.00,,,-99.99,,2013-01-29 03:12:00,
2013-01-28 22:22:00,47.0,45.0,-100.00,West,272,6.0,7.0,94,0.00,,,-99.99,,2013-01-29 03:22:00,
2013-01-28 22:32:00,50.0,48.0,-100.00,West,278,6.0,7.0,95,0.00,,,-99.99,,2013-01-29 03:32:00,
2013-01-28 22:42:00,48.0,45.0,-100.00,West,273,6.0,7.0,95,0.00,,,-99.99,,2013-01-29 03:42:00,
2013-01-28 22:52:00,48.0,45.0,-100.00,WNW,288,6.0,7.0,95,0.00,,,-99.99,,2013-01-29 03:52:00,
2013-01-28 23:02:00,50.0,48.0,-100.00,West,268,7.0,7.0,95,0.00,,,-99.99,,2013-01-29 04:02:00,
2013-01-28 23:12:00,47.0,45.0,-100.00,West,266,7.0,7.0,95,0.00,,,-99.99,,2013-01-29 04:12:00,
2013-01-28 23:22:00,49.0,46.0,-100.00,WSW,248,7.0,7.0,95,0.00,,,-99.99,,2013-01-29 04:22:00,
2013-01-28 23:32:00,49.0,48.0,-100.00,West,264,6.0,7.0,97,0.00,,,-99.99,,2013-01-29 04:32:00,
2013-01-28 23:42:00,46.0,45.0,-100.00,SW,235,5.0,7.0,95,0.00,,,-99.99,,2013-01-29 04:42:00,
2013-01-28 23:52:00,46.0,43.0,-100.00,WSW,237,5.0,7.0,94,0.00,,,-99.99,,2013-01-29 04:52:00,